[[{"header":{"parameterUnit":"m.s-1","parameterCategory":1,"la1":30.2991,"la2":30.254,"lo1":-89.0895,"lo2":-89.0444,"dy":0.0017,"dx":0.0017,"nx":28,"ny":28,"refTime":"2024-03-06T09:00:00:Z","depth":0,"parameterNumber":2,"parameterNumberName":"U-component_of_WINDS"},"data":[0,0,0,0,0,0,0,0,0,0,0,0,0,0,0,0,0,0,0,0,0,0,0,0,0,0,0,0,0,0,0,0,0,0,0,0,0,0,0,0,0,0,0,0,0,0,0,0,0,0,0,0,0,0,0,0,0,0,2.9305,2.9306,0,2.9419,2.942,2.9422,2.9376,2.9373,2.937,2.9368,2.949,2.9495,2.9501,0,0,0,0,0,0,0,0,0,0,0,0,0,2.9053,2.9058,2.9305,2.9306,2.9308,2.9419,2.9421,2.9422,2.9376,2.9373,2.937,2.9366,2.9488,2.9495,2.9501,0,0,0,0,0,0,0,0,0,0,0,0,0,2.9165,2.906,2.9305,2.9298,2.9299,2.9419,2.9421,2.9423,2.9377,2.9373,2.9369,2.9365,2.9485,2.9494,2.9502,2.9637,0,0,2.9529,2.9533,0,0,0,0,0,0,0,0,2.9159,2.9174,2.9298,2.9299,2.93,2.9379,2.9376,2.9495,2.9378,2.9347,2.9368,2.9363,2.9456,2.9467,2.9498,2.9643,2.9648,2.953,2.9535,2.9539,2.9541,0,0,0,0,0,0,0,2.9151,2.9169,2.935,2.93,2.9301,2.9292,2.9303,2.9399,2.9423,2.935,2.9347,2.936,2.9456,2.9489,2.95,2.965,2.9529,2.9537,2.9542,2.9546,2.9916,2.992,0,0,0,0,0,0,2.9142,2.9163,2.9347,2.9354,2.9217,2.9299,2.9312,2.9358,2.9422,2.9428,2.9364,2.9358,2.9477,2.949,2.9504,2.967,2.9539,2.9547,2.9552,2.9911,2.9917,2.9922,0,0,0,0,0,0,2.9137,2.9159,2.9342,2.9257,2.928,2.9308,2.936,2.9362,2.9395,2.9433,2.9438,2.9393,2.9474,2.9492,2.9605,2.9673,2.9551,2.9558,2.9906,2.9913,2.9919,2.9999,0,0,0,0,0,0,2.913,2.9157,2.9207,2.9259,2.9285,2.9439,2.9364,2.9367,2.941,2.9403,2.9461,2.9467,2.9472,2.9592,2.9614,2.9683,2.9565,2.99,2.9909,2.9917,2.9991,3.0008,3.0023,0,0,0,0,0,2.9121,2.9225,2.921,2.9232,2.9347,2.9443,2.9458,2.946,2.9415,2.9467,2.9492,2.9465,2.9661,2.9604,2.9628,2.9701,2.9896,2.9906,2.9916,2.9983,3.0005,3.0022,0,0,0,0,0,0,2.9182,2.9232,2.9215,2.9339,2.9387,2.9435,2.95,2.9482,2.9545,2.9536,2.9538,2.9552,2.9669,2.9695,2.9631,2.9836,2.9772,2.9788,2.9815,2.9835,2.9851,2.9844,2.9572,0,0,0,0,0,2.9209,2.9281,2.9321,2.9427,2.9452,2.9472,2.9514,2.9511,2.9562,2.9582,2.9615,2.9667,2.974,2.9789,2.9858,2.9993,3.0008,3.0055,3.0071,3.0084,3.0099,3.0176,3.0199,2.9956,2.9956,2.9956,0,0,2.9267,2.9304,2.9349,2.944,2.9477,2.9554,2.9489,2.9572,2.9631,2.9595,2.9705,2.9731,2.9789,2.9914,2.9971,2.994,3.0169,3.0098,3.0108,3.0115,3.0189,3.0212,3.0233,2.9963,2.9962,2.9961,0,0,2.9413,2.9446,2.9539,2.9578,2.9635,2.9648,2.967,2.9722,2.9738,2.9847,2.9823,2.9893,3.0018,3.0062,3.01,3.0265,3.0245,3.0288,3.0373,3.0449,3.0468,3.0485,3.0547,3.0569,3.0301,3.0302,3.0302,0,2.9479,2.9592,2.959,2.9676,2.9719,2.9689,2.9786,2.9823,2.9901,2.9932,2.9895,3.0055,3.0091,3.0228,3.0269,3.03,3.0328,3.0282,3.0465,3.0482,3.0498,3.0558,3.0581,3.0307,3.0306,3.0306,3.0305,0,2.9672,2.9751,2.982,2.9895,2.9945,3.0036,3.005,3.0101,3.0095,3.0112,3.0226,3.0269,3.0349,3.038,3.0375,3.0518,3.0498,3.0463,3.0399,3.0526,3.0583,3.0605,3.0314,3.0312,3.0311,3.031,0,0,2.986,2.9934,2.9959,2.9995,3.0056,3.0118,3.0209,3.0285,3.0331,3.0385,3.0464,3.0572,3.0541,3.0585,3.0584,3.065,3.0783,3.0608,3.0609,3.0642,3.0948,3.0976,3.1002,3.0769,3.0773,3.0776,3.0944,0,3.0014,3.0171,3.0173,3.032,3.0395,3.0369,3.0449,3.0497,3.0516,3.0584,3.0606,3.0684,3.0635,3.0663,3.0726,3.0753,3.0845,3.0741,3.0845,3.0849,3.0835,3.1031,3.106,3.1217,3.0966,3.0969,3.0972,0,3.0214,3.0275,3.0429,3.0482,3.0513,3.0585,3.0657,3.0721,3.0776,3.0786,3.0836,3.0826,3.0922,3.0853,3.0987,3.0916,3.0959,3.0979,3.0985,3.0998,3.092,3.1052,3.1266,3.1291,3.1006,3.1003,3.1001,0,3.034,3.046,3.0569,3.0599,3.0663,3.0715,3.0744,3.0794,3.0841,3.0905,3.0936,3.101,3.1051,3.111,3.1122,3.107,3.1258,3.1189,3.1272,3.1272,3.1314,3.1312,3.1542,3.1337,3.1336,3.1336,3.1335,0,3.0513,3.0609,3.0627,3.0694,3.0802,3.0804,3.0912,3.0937,3.0983,3.1057,3.1038,3.1108,3.1118,3.1191,3.12,3.1312,3.133,3.1343,3.1345,3.1347,3.1346,3.1377,3.1368,3.1342,3.1341,3.134,3.1338,0,3.0673,3.0689,3.0806,3.0857,3.0872,3.095,3.0995,3.1061,3.1078,3.1172,3.1194,3.1223,3.1308,3.1325,3.1426,3.1432,3.1567,3.1556,3.1548,3.1548,3.1632,3.1625,3.1892,3.1929,3.1697,3.1699,3.1701,0,3.0784,3.0858,3.0917,3.0965,3.0996,3.1073,3.1121,3.1126,3.1178,3.1247,3.1306,3.1389,3.1456,3.1594,3.1625,3.1703,3.1697,3.1785,3.1709,3.1709,3.1703,3.1699,3.1709,3.1801,3.1803,3.1805,3.1807,0,3.0981,3.0985,3.1054,3.1128,3.1185,3.1243,3.1298,3.1339,3.1352,3.1411,3.1498,3.155,3.1653,3.1738,3.1816,3.1848,3.1832,3.183,3.1855,3.1858,3.1852,3.186,3.1592,3.1825,3.1823,3.1822,3.1821,3.182,3.1122,3.1188,3.1241,3.1319,3.1361,3.1414,3.1479,3.1505,3.1577,3.1661,3.166,3.1756,3.1812,3.1915,3.1953,3.203,3.2002,3.2036,3.2045,3.2054,3.2064,3.1837,3.2044,3.2043,3.2043,3.2042,3.2042,0,3.1321,3.1354,3.1426,3.1504,3.1567,3.1543,3.1603,3.1658,3.1743,3.1795,3.1862,3.1964,3.2046,3.2084,3.2166,3.222,3.2215,3.2242,3.224,3.2248,3.2082,3.2055,3.2245,3.2245,3.2245,3.2245,3.2245,3.2245,3.1432,3.1543,3.1554,3.1687,3.1719,3.1812,3.1849,3.1899,3.1941,3.2055,3.2123,3.2147,3.2195,3.228,3.2355,3.2365,3.2397,3.2429,3.2435,3.228,3.2259,3.224,3.2214,3.2435,3.2435,3.2595,3.2596,3.2598]},{"header":{"parameterUnit":"m.s-1","parameterCategory":1,"la1":30.2991,"la2":30.254,"lo1":-89.0895,"lo2":-89.0444,"dy":0.0017,"dx":0.0017,"nx":28,"ny":28,"refTime":"2024-03-06T09:00:00:Z","depth":0,"parameterNumber":3,"parameterNumberName":"V-component_of_WINDS"},"data":[0,0,0,0,0,0,0,0,0,0,0,0,0,0,0,0,0,0,0,0,0,0,0,0,0,0,0,0,0,0,0,0,0,0,0,0,0,0,0,0,0,0,0,0,0,0,0,0,0,0,0,0,0,0,0,0,0,0,0.4371,0.4373,0,0.4594,0.4596,0.4599,0.4531,0.4526,0.4522,0.4517,0.4748,0.4759,0.4769,0,0,0,0,0,0,0,0,0,0,0,0,0,0.3886,0.3895,0.437,0.4373,0.4376,0.4593,0.4596,0.4599,0.4532,0.4526,0.452,0.4515,0.4745,0.4757,0.477,0,0,0,0,0,0,0,0,0,0,0,0,0,0.4102,0.3898,0.437,0.4368,0.4371,0.4593,0.4596,0.46,0.4533,0.4526,0.4519,0.4512,0.4741,0.4756,0.4772,0.5009,0,0,0.482,0.4827,0,0,0,0,0,0,0,0,0.4089,0.4119,0.4366,0.4369,0.4372,0.4527,0.451,0.4737,0.4535,0.4472,0.4517,0.4509,0.4681,0.4701,0.4758,0.502,0.503,0.4821,0.4831,0.4838,0.4842,0,0,0,0,0,0,0,0.4075,0.411,0.4459,0.437,0.4373,0.4357,0.4379,0.4553,0.4613,0.4476,0.4472,0.4499,0.4681,0.4743,0.4763,0.5034,0.4821,0.4835,0.4845,0.4851,0.5497,0.5504,0,0,0,0,0,0,0.4058,0.4098,0.4452,0.4465,0.421,0.4371,0.4397,0.4484,0.4611,0.4623,0.4505,0.4495,0.472,0.4745,0.4771,0.5055,0.4837,0.4852,0.4861,0.5489,0.5499,0.5507,0,0,0,0,0,0,0.4047,0.409,0.4443,0.428,0.4324,0.4387,0.4486,0.4493,0.4555,0.4632,0.4643,0.4558,0.4715,0.4749,0.4949,0.5062,0.4859,0.4874,0.548,0.5492,0.5503,0.5626,0,0,0,0,0,0,0.4034,0.4087,0.4178,0.4283,0.4333,0.4618,0.4493,0.4502,0.4582,0.4571,0.4684,0.4696,0.4712,0.4926,0.4965,0.508,0.4886,0.547,0.5486,0.5499,0.5612,0.5641,0.5665,0,0,0,0,0,0.4017,0.4206,0.4183,0.4226,0.4449,0.4625,0.4653,0.4667,0.4591,0.4683,0.4732,0.4693,0.5043,0.4947,0.4991,0.5112,0.5463,0.5481,0.5498,0.5601,0.5635,0.5664,0,0,0,0,0,0,0.4115,0.4219,0.4196,0.4424,0.4516,0.4613,0.473,0.4704,0.482,0.4805,0.4817,0.4844,0.5049,0.51,0.4992,0.5346,0.5242,0.5269,0.5305,0.5339,0.5364,0.5347,0.4899,0,0,0,0,0,0.4162,0.4296,0.4381,0.4574,0.4621,0.4668,0.4745,0.4747,0.4843,0.4882,0.4946,0.5041,0.5171,0.5258,0.5383,0.5619,0.5641,0.5723,0.5749,0.5771,0.5794,0.5918,0.5955,0.5564,0.5564,0.5563,0,0,0.4263,0.4337,0.4421,0.4595,0.4667,0.4804,0.4701,0.4852,0.4954,0.4905,0.5097,0.5147,0.5254,0.5472,0.5572,0.5522,0.5906,0.5793,0.5809,0.5821,0.594,0.5977,0.601,0.5576,0.5574,0.5572,0,0,0.4517,0.4587,0.4754,0.4826,0.4935,0.4964,0.5004,0.5104,0.5135,0.5328,0.5292,0.5414,0.564,0.5716,0.5785,0.6062,0.6029,0.6103,0.624,0.6361,0.6392,0.6419,0.6516,0.6551,0.6125,0.6126,0.6126,0,0.4629,0.4835,0.4843,0.4997,0.5073,0.5032,0.52,0.5271,0.5415,0.5469,0.541,0.569,0.5759,0.5993,0.606,0.6118,0.6162,0.609,0.6387,0.6414,0.644,0.6532,0.6569,0.6134,0.6133,0.6132,0.6131,0,0.4966,0.5109,0.5231,0.5368,0.5459,0.5619,0.5651,0.5741,0.5734,0.5769,0.5963,0.6044,0.6183,0.6239,0.6235,0.6471,0.6436,0.6383,0.6278,0.6485,0.6571,0.6607,0.6145,0.6142,0.614,0.6138,0,0,0.5291,0.5427,0.5472,0.5532,0.5646,0.5757,0.5914,0.6048,0.6124,0.6224,0.6355,0.6545,0.6494,0.6572,0.6575,0.6682,0.6893,0.6615,0.6617,0.6662,0.7155,0.7194,0.7235,0.6871,0.6878,0.6884,0.7145,0,0.5553,0.5828,0.5838,0.6089,0.6219,0.618,0.6316,0.6401,0.6436,0.6552,0.6591,0.6725,0.6649,0.6695,0.6799,0.6845,0.6992,0.6827,0.6992,0.6998,0.6966,0.728,0.7323,0.7566,0.7179,0.7185,0.7189,0,0.5896,0.6003,0.6267,0.6358,0.6413,0.6536,0.6657,0.6769,0.6862,0.688,0.6965,0.6952,0.711,0.7,0.7217,0.7105,0.7172,0.7205,0.7214,0.723,0.7106,0.7303,0.7644,0.768,0.7243,0.7239,0.7235,0,0.6103,0.6314,0.6498,0.6551,0.6663,0.6749,0.68,0.6887,0.6965,0.7071,0.7122,0.7246,0.7314,0.7409,0.7429,0.7347,0.7646,0.7538,0.7664,0.7663,0.7729,0.7724,0.8084,0.7775,0.7774,0.7773,0.7773,0,0.6394,0.6556,0.6592,0.6705,0.6884,0.6893,0.7071,0.7115,0.7192,0.7312,0.7286,0.7399,0.7419,0.7536,0.7552,0.7728,0.7759,0.7777,0.7779,0.7779,0.7777,0.7823,0.7807,0.7783,0.7781,0.7779,0.7777,0,0.6657,0.6687,0.6884,0.6973,0.6999,0.7127,0.7202,0.731,0.7341,0.7493,0.7529,0.7578,0.7714,0.7743,0.7905,0.7915,0.8123,0.811,0.8092,0.809,0.8214,0.8201,0.8616,0.8669,0.8326,0.8329,0.8332,0,0.684,0.6963,0.7064,0.7141,0.7196,0.7322,0.7401,0.7413,0.7497,0.761,0.7703,0.7836,0.7942,0.8161,0.8211,0.8334,0.8322,0.8458,0.834,0.8334,0.8321,0.8313,0.8324,0.8481,0.8485,0.8488,0.849,0,0.7162,0.7169,0.7284,0.7403,0.7497,0.7592,0.7682,0.7747,0.7771,0.7866,0.8003,0.8086,0.8249,0.838,0.8502,0.8553,0.8526,0.8527,0.8562,0.8563,0.8546,0.8554,0.8152,0.8517,0.8515,0.8513,0.8511,0.851,0.7389,0.7495,0.7581,0.7708,0.7776,0.786,0.7964,0.8006,0.8121,0.8254,0.8254,0.8404,0.8491,0.8651,0.8709,0.8826,0.8783,0.8835,0.8848,0.886,0.887,0.8528,0.8848,0.8847,0.8847,0.8846,0.8846,0,0.7707,0.7759,0.7876,0.8001,0.81,0.8064,0.816,0.8246,0.8378,0.846,0.8564,0.8721,0.8847,0.8905,0.9028,0.911,0.91,0.9142,0.9136,0.9147,0.8903,0.8859,0.9148,0.9148,0.9147,0.9147,0.9147,0.9147,0.7884,0.806,0.8078,0.8287,0.8338,0.8483,0.8541,0.8617,0.8682,0.8858,0.8961,0.8998,0.907,0.9198,0.9311,0.9324,0.937,0.9418,0.9425,0.9196,0.9165,0.9136,0.9094,0.9428,0.9428,0.966,0.9662,0.9664]}]]